Tracking 30692 objects as of 16-Jun-2025
HD Live streaming from Space Station
objects crossing your sky now

COSMOS 1275 DEB

Track COSMOS 1275 DEB now!
10-day predictions


NORAD ID: 13483
Int'l Code: 1981-053GF
Perigee: 822.0 km
Apogee: 837.8 km
Inclination: 82.9 °
Period: 101.4 minutes
Semi major axis: 7200 km
RCS: 0.0105 m2 (small)
Launch date: June 4, 1981
Source: Commonwealth of Independent States (former USSR) (CIS)
Launch site: PLESETSK MISSILE AND SPACE COMPLEX (PKMTR)

Note: This is SATELLITE DEBRIS
Your satellite tracking list
Your tracking list is empty




NASA's NSSDC Master Catalog

Two Line Element Set (TLE):
1 13483U 81053GD  25167.06014862  .00001866  00000-0  85722-3 0  9992
2 13483  82.9227  19.8994 0010959 109.4382  43.5762 14.20761268195720
Source of the keplerian elements: AFSPC